VE3KSR Weather Reports


Display with metric or nautical units.
time (UTC)temp
F
wind
direction
speed
MPH
gust
MPH
rain 1hr
in
rain 24hr
in
rain mn
in
humidity
%
barometer
mb
20260903033229 0 0 0.0 0.0 0.00 0.00 0.00 100
20260903032728 0 0 0.0 0.0 0.00 0.00 0.00 100
20260903032228 0 0 0.0 0.0 0.00 0.00 0.00 100
20260903031729 0 0 0.0 0.0 0.00 0.00 0.00 100
20260903031228 0 0 0.0 0.0 0.00 0.00 0.00 100
20260903030728 0 0 0.0 0.0 0.00 0.00 0.00 100
20260903030229 60 0 0.0 0.0 0.00 0.00 0.00 100
20260903025729 67 0 0.0 0.0 0.00 0.00 0.00 100
20260903025228 0 0 0.0 0.0 0.00 0.00 0.00 100
20260903024728 0 0 0.0 0.0 0.00 0.00 0.00 100
20260903024227 0 0 0.0 0.0 0.00 0.00 0.00 100
20260903023728 0 0 0.0 0.0 0.00 0.00 0.00 100
20260903023229 0 0 0.0 0.0 0.00 0.00 0.00 100
20260903022728 0 0 0.0 0.0 0.00 0.00 0.00 100
20260903022228 0 0 0.0 0.0 0.00 0.00 0.00 100
20260903021729 0 0 0.0 0.0 0.00 0.00 0.00 100
20260903021228 0 0 0.0 0.0 0.00 0.00 0.00 100
20260903020728 0 0 0.0 0.0 0.00 0.00 0.00 100
20260903020228 0 0 0.0 0.0 0.00 0.00 0.00 100
20260903015729 0 0 0.0 0.0 0.00 0.00 0.00 100
20260903015228 0 0 0.0 0.0 0.00 0.00 0.00 100
20260903014729 0 0 0.0 0.0 0.00 0.00 0.00 100
20260903014228 0 0 0.0 0.0 0.00 0.00 0.00 100
20260903013730 0 0 0.0 0.0 0.00 0.00 0.00 100
20260903013228 0 0 0.0 0.0 0.00 0.00 0.00 100
20260903012728 0 0 0.0 0.0 0.00 0.00 0.00 100
20260903012228 0 0 0.0 0.0 0.00 0.00 0.00 100
20260903011728 0 0 0.0 0.0 0.00 0.00 0.00 100
20260903011228 0 0 0.0 0.0 0.00 0.00 0.00 100
20260903010730 0 0 0.0 0.0 0.00 0.00 0.00 100
20260903010231 0 0 0.0 0.0 0.00 0.00 0.00 100
20260903005728 0 0 0.0 0.0 0.00 0.00 0.00 100
20260903005228 0 0 0.0 0.0 0.00 0.00 0.00 100
20260903004728 0 0 0.0 0.0 0.00 0.00 0.00 100
20260903004228 0 0 0.0 0.0 0.00 0.00 0.00 98
20260903003728 0 0 0.0 0.0 0.00 0.00 0.00 100
20260903003229 0 0 0.0 0.0 0.00 0.00 0.00 98
20260903002728 0 0 0.0 0.0 0.00 0.00 0.00 100
20260903002228 0 0 0.0 0.0 0.00 0.00 0.00 100
20260903001731 0 0 0.0 0.0 0.00 0.00 0.00 100
20260903001231 0 0 0.0 0.0 0.00 0.00 0.00 100
20260903000728 0 0 0.0 0.0 0.00 0.00 0.00 100
20260903000228 0 0 0.0 0.0 0.00 0.00 0.00 100
20260902235728 0 0 0.0 0.0 0.00 0.00 0.00 100
20260902235228 0 0 0.0 0.0 0.00 0.00 0.00 100
20260902234729 0 0 0.0 0.0 0.00 0.00 0.00 100
20260902234228 0 0 0.0 0.0 0.00 0.00 0.00 100
20260902233728 0 0 0.0 0.0 0.00 0.00 0.00 100
20260902233230 0 0 0.0 0.0 0.00 0.00 0.00 100
20260902232730 0 0 0.0 0.0 0.00 0.00 0.00 100
20260902232228 0 0 0.0 0.0 0.00 0.00 0.00 100
20260902231728 0 0 0.0 0.0 0.00 0.00 0.00 100
20260902231228 0 0 0.0 0.0 0.00 0.00 0.00 100
20260902230728 0 0 0.0 0.0 0.00 0.00 0.00 100
20260902230228 0 0 0.0 0.0 0.00 0.00 0.00 100
20260902225728 0 0 0.0 0.0 0.00 0.00 0.00 100
20260902225230 0 0 0.0 0.0 0.00 0.00 0.00 100
20260902224729 0 0 0.0 0.0 0.00 0.00 0.00 100
20260902224230 0 0 0.0 0.0 0.00 0.00 0.00 100
20260902223728 0 0 0.0 0.0 0.00 0.00 0.00 100
20260902223229 0 0 0.0 0.0 0.00 0.00 0.00 100
20260902222729 0 0 0.0 0.0 0.00 0.00 0.00 100
20260902222229 0 0 0.0 0.0 0.00 0.00 0.00 100
20260902221730 0 0 0.0 0.0 0.00 0.00 0.00 100
20260902221443 0 0 0.0 0.0 0.00 0.00 0.00 100
20260902221231 0 0 0.0 0.0 0.00 0.00 0.00 100
20260902220729 0 0 0.0 0.0 0.00 0.00 0.00 100
20260902220229 0 359 1.0 5.0 0.00 0.00 0.00 100
20260902215230 0 340 20.0 41.0 0.00 0.00 0.00 96
20260902214730 75 352 20.0 33.0 0.00 0.00 0.00 100
20260902214228 0 3 37.0 54.0 0.00 0.00 0.00 99
20260902213730 0 270 37.0 56.0 0.00 0.00 0.00 100
20260902213228 0 308 14.0 26.0 0.00 0.00 0.00 94
20260902212730 0 0 0.0 0.0 0.00 0.00 0.00 93
20260902211730 0 0 0.0 0.0 0.00 0.00 0.00 93
20260902210729 0 0 0.0 0.0 0.00 0.00 0.00 82
20260902210229 0 0 0.0 0.0 0.00 0.00 0.00 83
20260902205729 0 179 4.0 9.0 0.00 0.00 0.00 82
20260902205229 0 0 0.0 0.0 0.00 0.00 0.00 81
20260902204729 0 0 0.0 0.0 0.00 0.00 0.00 81
20260902204232 0 0 0.0 0.0 0.00 0.00 0.00 82
20260902203728 0 0 0.0 0.0 0.00 0.00 0.00 80
20260902203229 0 0 0.0 0.0 0.00 0.00 0.00 79
20260902202728 0 0 0.0 0.0 0.00 0.00 0.00 78
20260902202228 0 0 0.0 0.0 0.00 0.00 0.00 78
20260902201728 0 0 0.0 0.0 0.00 0.00 0.00 77
20260902201228 0 0 0.0 0.0 0.00 0.00 0.00 77
20260902200728 0 0 0.0 0.0 0.00 0.00 0.00 76
20260902200228 0 0 0.0 0.0 0.00 0.00 0.00 78
20260902195729 0 0 0.0 0.0 0.00 0.00 0.00 76
20260902195228 0 0 0.0 0.0 0.00 0.00 0.00 76
20260902194730 0 0 0.0 0.0 0.00 0.00 0.00 76
20260902194229 0 0 0.0 0.0 0.00 0.00 0.00 78
20260902193728 0 0 0.0 0.0 0.00 0.00 0.00 78
20260902193228 0 0 0.0 0.0 0.00 0.00 0.00 81
20260902192729 -55 0 0.0 0.0 0.00 0.00 0.00 83
20260902192229 0 0 0.0 0.0 0.00 0.00 0.00 88
20260902191729 0 0 0.0 0.0 0.00 0.00 0.00 91
20260902191229 0 0 0.0 0.0 0.00 0.00 0.00 93
20260902190832 0 0 0.0 0.0 0.00 0.00 0.00 95
20260902190729 0 0 0.0 0.0 0.00 0.00 0.00 95
20260902190229 0 0 0.0 0.0 0.00 0.00 0.00 97
20260902185729 0 0 0.0 0.0 0.00 0.00 0.00 98
20260902185229 -55 198 13.0 17.0 0.00 0.00 0.00 98
20260902184729 0 212 12.0 16.0 0.00 0.00 0.00 98
20260902184230 0 0 0.0 0.0 0.00 0.00 0.00 97
20260902183732 0 0 0.0 0.0 0.00 0.00 0.00 97
20260902183230 0 0 0.0 0.0 0.00 0.00 0.00 97
20260902182730 0 0 0.0 0.0 0.00 0.00 0.00 97
20260902182230 0 0 0.0 0.0 0.00 0.00 0.00 97
20260902181730 0 0 0.0 0.0 0.00 0.00 0.00 97
20260902181229 0 0 0.0 0.0 0.00 0.00 0.00 97
20260902180729 0 238 2.0 9.0 0.00 0.00 0.00 97
20260902180231 0 238 0.0 0.0 0.00 0.00 0.00 96
20260902175729 0 0 0.0 0.0 0.00 0.00 0.00 96
20260902175229 0 231 2.0 10.0 0.00 0.00 0.00 97
20260902174729 0 0 0.0 0.0 0.00 0.00 0.00 97
20260902174229 0 0 0.0 0.0 0.00 0.00 0.00 97
20260902173729 0 273 0.0 4.0 0.00 0.00 0.00 97
20260902173229 0 0 0.0 0.0 0.00 0.00 0.00 97
20260902172731 0 235 3.0 11.0 0.00 0.00 0.00 97
20260902172230 0 0 0.0 0.0 0.00 0.00 0.00 98
20260902170730 0 197 14.0 17.0 0.00 0.00 0.00 98
20260902170229 0 0 0.0 0.0 0.00 0.00 0.00 98
20260902165729 0 0 0.0 0.0 0.00 0.00 0.00 99
20260902165229 0 242 1.0 8.0 0.00 0.00 0.00 99
20260902164729 0 0 0.0 0.0 0.00 0.00 0.00 100
20260902164318 0 0 0.0 0.0 0.00 0.00 0.00 100
20260902164229 0 0 0.0 0.0 0.00 0.00 0.00 100
20260902163730 0 0 0.0 0.0 0.00 0.00 0.00 100
20260902163229 0 0 0.0 0.0 0.00 0.00 0.00 100
20260902162821 0 0 0.0 0.0 0.00 0.00 0.00 100
20260902162730 0 0 0.0 0.0 0.00 0.00 0.00 100
20260902162229 0 0 0.0 0.0 0.00 0.00 0.00 100
20260902161729 0 0 0.0 0.0 0.00 0.00 0.00 100
20260902161229 0 0 0.0 0.0 0.00 0.00 0.00 100
20260902160917 0 242 1.0 8.0 0.00 0.00 0.00 100
20260902160730 0 242 1.0 8.0 0.00 0.00 0.00 100
20260902160230 0 242 0.0 3.0 0.00 0.00 0.00 100
20260902155733 0 0 0.0 0.0 0.00 0.00 0.00 100
20260902155229 0 0 0.0 0.0 0.00 0.00 0.00 100
20260902154729 0 245 2.0 11.0 0.00 0.00 0.00 100
20260902154230 0 0 0.0 0.0 0.00 0.00 0.00 100
20260902153729 0 0 0.0 0.0 0.00 0.00 0.00 100
20260902153319 0 0 0.0 0.0 0.00 0.00 0.00 100
20260902153232 0 0 0.0 0.0 0.00 0.00 0.00 100
20260902152729 -55 0 0.0 0.0 0.00 0.00 0.00 100
20260902152230 0 332 0.0 3.0 0.00 0.00 0.00 100
20260902151730 0 0 0.0 0.0 0.00 0.00 0.00 100
20260902151229 0 0 0.0 0.0 0.00 0.00 0.00 100
20260902150729 0 0 0.0 0.0 0.00 0.00 0.00 100
20260902150230 0 0 0.0 0.0 0.00 0.00 0.00 100
20260902145729 0 0 0.0 0.0 0.00 0.00 0.00 100
20260902145229 0 0 0.0 0.0 0.00 0.00 0.00 100
20260902144732 0 0 0.0 0.0 0.00 0.00 0.00 100
20260902144230 0 0 0.0 0.0 0.00 0.00 0.00 100
20260902143729 0 0 0.0 0.0 0.00 0.00 0.00 100
20260902143230 0 0 0.0 0.0 0.00 0.00 0.00 100
20260902142730 0 0 0.0 0.0 0.00 0.00 0.00 100
20260902142229 -55 0 0.0 0.0 0.00 0.00 0.00 100
20260902141731 0 0 0.0 0.0 0.00 0.00 0.00 100
20260902141229 0 0 0.0 0.0 0.00 0.00 0.00 100
20260902140729 0 0 0.0 0.0 0.00 0.00 0.00 100
20260902140229 0 0 0.0 0.0 0.00 0.00 0.00 100
20260902135730 0 0 0.0 0.0 0.00 0.00 0.00 100
20260902135230 0 0 0.0 0.0 0.00 0.00 0.00 100
20260902134729 0 0 0.0 0.0 0.00 0.00 0.00 100
20260902134238 0 0 0.0 0.0 0.00 0.00 0.00 100
20260902133733 -55 0 0.0 0.0 0.00 0.00 0.00 100
20260902133229 0 0 0.0 0.0 0.00 0.00 0.00 100
20260902132729 0 0 0.0 0.0 0.00 0.00 0.00 100
20260902132231 0 0 0.0 0.0 0.00 0.00 0.00 100
20260902131729 0 0 0.0 0.0 0.00 0.00 0.00 100
20260902131229 -55 0 0.0 0.0 0.00 0.00 0.00 100
20260902130731 0 0 0.0 0.0 0.00 0.00 0.00 100
20260902130230 0 0 0.0 0.0 0.00 0.00 0.00 100
20260902125729 0 0 0.0 0.0 0.00 0.00 0.00 100
20260902125231 0 0 0.0 0.0 0.00 0.00 0.00 100
20260902124729 0 0 0.0 0.0 0.00 0.00 0.00 100
20260902124230 0 0 0.0 0.0 0.00 0.00 0.00 100
20260902123731 0 0 0.0 0.0 0.00 0.00 0.00 100
20260902123231 0 0 0.0 0.0 0.00 0.00 0.00 100
20260902122730 0 0 0.0 0.0 0.00 0.00 0.00 100
20260902122230 0 0 0.0 0.0 0.00 0.00 0.00 100
20260902121730 0 0 0.0 0.0 0.00 0.00 0.00 100
20260902121230 0 0 0.0 0.0 0.00 0.00 0.00 100
20260902120729 0 0 0.0 0.0 0.00 0.00 0.00 100
20260902120229 0 0 0.0 0.0 0.00 0.00 0.00 100
20260902115729 0 0 0.0 0.0 0.00 0.00 0.00 100
20260902115230 0 0 0.0 0.0 0.00 0.00 0.00 100
20260902114729 0 0 0.0 0.0 0.00 0.00 0.00 100
20260902114230 0 0 0.0 0.0 0.00 0.00 0.00 100
20260902113730 0 0 0.0 0.0 0.00 0.00 0.00 100
20260902113230 0 0 0.0 0.0 0.00 0.00 0.00 100
20260902112731 0 0 0.0 0.0 0.00 0.00 0.00 100
20260902112229 0 0 0.0 0.0 0.00 0.00 0.00 100
20260902111729 0 0 0.0 0.0 0.00 0.00 0.00 100
20260902111232 0 0 0.0 0.0 0.00 0.00 0.00 100
20260902110730 -55 0 0.0 0.0 0.00 0.00 0.00 100
20260902110229 71 0 0.0 0.0 0.00 0.00 0.00 100
20260902105731 71 0 0.0 0.0 0.00 0.00 0.00 100
20260902105229 72 0 0.0 0.0 0.00 0.00 0.00 100
20260902104733 72 0 0.0 0.0 0.00 0.00 0.00 100
20260902104230 -55 0 0.0 0.0 0.00 0.00 0.00 100
20260902103731 0 0 0.0 0.0 0.00 0.00 0.00 100
20260902103230 0 0 0.0 0.0 0.00 0.00 0.00 100
20260902102734 0 0 0.0 0.0 0.00 0.00 0.00 100
20260902102230 0 0 0.0 0.0 0.00 0.00 0.00 100
20260902101730 0 0 0.0 0.0 0.00 0.00 0.00 100
20260902101230 0 0 0.0 0.0 0.00 0.00 0.00 100
20260902100730 0 0 0.0 0.0 0.00 0.00 0.00 100
20260902100230 0 0 0.0 0.0 0.00 0.00 0.00 100
20260902095730 0 0 0.0 0.0 0.00 0.00 0.00 100
20260902095231 0 0 0.0 0.0 0.00 0.00 0.00 100
20260902094730 0 0 0.0 0.0 0.00 0.00 0.00 100
20260902094230 0 0 0.0 0.0 0.00 0.00 0.00 100
20260902093730 0 0 0.0 0.0 0.00 0.00 0.00 100
20260902093231 0 0 0.0 0.0 0.00 0.00 0.00 100
20260902092730 0 0 0.0 0.0 0.00 0.00 0.00 100
20260902092230 0 0 0.0 0.0 0.00 0.00 0.00 100
20260902091730 0 0 0.0 0.0 0.00 0.00 0.00 100
20260902091231 0 0 0.0 0.0 0.00 0.00 0.00 100
20260902090730 0 0 0.0 0.0 0.00 0.00 0.00 100
20260902090230 0 0 0.0 0.0 0.00 0.00 0.00 100
20260902085730 0 0 0.0 0.0 0.00 0.00 0.00 100
20260902085230 0 0 0.0 0.0 0.00 0.00 0.00 100
20260902084732 0 0 0.0 0.0 0.00 0.00 0.00 100
20260902084230 0 0 0.0 0.0 0.00 0.00 0.00 100
20260902083730 0 0 0.0 0.0 0.00 0.00 0.00 100
20260902083230 0 0 0.0 0.0 0.00 0.00 0.00 100
20260902082730 0 0 0.0 0.0 0.00 0.00 0.00 100
20260902082230 0 0 0.0 0.0 0.00 0.00 0.00 100
20260902081731 0 0 0.0 0.0 0.00 0.00 0.00 100
20260902081230 0 0 0.0 0.0 0.00 0.00 0.00 100
20260902080730 0 0 0.0 0.0 0.00 0.00 0.00 100
20260902080230 71 0 0.0 0.0 0.00 0.00 0.00 100
20260902075730 71 0 0.0 0.0 0.00 0.00 0.00 100
20260902075230 0 0 0.0 0.0 0.00 0.00 0.00 100
20260902074730 72 0 0.0 0.0 0.00 0.00 0.00 100
20260902074230 0 0 0.0 0.0 0.00 0.00 0.00 100
20260902073730 0 0 0.0 0.0 0.00 0.00 0.00 100
20260902073231 0 0 0.0 0.0 0.00 0.00 0.00 100
20260902072730 0 0 0.0 0.0 0.00 0.00 0.00 100
20260902072230 0 0 0.0 0.0 0.00 0.00 0.00 100
20260902071730 0 0 0.0 0.0 0.00 0.00 0.00 100
20260902071230 0 0 0.0 0.0 0.00 0.00 0.00 100
20260902070730 0 0 0.0 0.0 0.00 0.00 0.00 100
20260902070232 0 0 0.0 0.0 0.00 0.00 0.00 100
20260902065733 0 0 0.0 0.0 0.00 0.00 0.00 100
20260902065230 0 0 0.0 0.0 0.00 0.00 0.00 100
20260902064731 0 0 0.0 0.0 0.00 0.00 0.00 100
20260902064230 0 0 0.0 0.0 0.00 0.00 0.00 100
20260902063730 0 0 0.0 0.0 0.00 0.00 0.00 100
20260902063230 0 0 0.0 0.0 0.00 0.00 0.00 100
20260902062731 0 0 0.0 0.0 0.00 0.00 0.00 100
20260902062230 0 0 0.0 0.0 0.00 0.00 0.00 100
20260902061730 0 0 0.0 0.0 0.00 0.00 0.00 100
20260902061232 0 0 0.0 0.0 0.00 0.00 0.00 100
20260902060730 0 0 0.0 0.0 0.00 0.00 0.00 100
20260902060230 0 0 0.0 0.0 0.00 0.00 0.00 100
20260902055730 0 0 0.0 0.0 0.00 0.00 0.00 100
20260902055230 0 0 0.0 0.0 0.00 0.00 0.00 100
20260902054730 0 0 0.0 0.0 0.00 0.00 0.00 100
20260902054230 0 0 0.0 0.0 0.00 0.00 0.00 100
20260902053731 0 0 0.0 0.0 0.00 0.00 0.00 100
20260902053230 0 0 0.0 0.0 0.00 0.00 0.00 100
20260902052730 0 0 0.0 0.0 0.00 0.00 0.00 100
20260902052231 0 0 0.0 0.0 0.00 0.00 0.00 100
20260902051731 0 0 0.0 0.0 0.00 0.00 0.00 100
20260902051230 0 0 0.0 0.0 0.00 0.00 0.00 100
20260902050730 0 0 0.0 0.0 0.00 0.00 0.00 100
20260902050230 0 0 0.0 0.0 0.00 0.00 0.00 99
20260902045730 0 0 0.0 0.0 0.00 0.00 0.00 99
20260902045230 0 0 0.0 0.0 0.00 0.00 0.00 98
20260902044730 0 0 0.0 0.0 0.00 0.00 0.00 99
20260902044230 0 0 0.0 0.0 0.00 0.00 0.00 100
20260902043731 0 0 0.0 0.0 0.00 0.00 0.00 100
20260902043231 0 0 0.0 0.0 0.00 0.00 0.00 100
20260902042730 0 0 0.0 0.0 0.00 0.00 0.00 100
20260902042230 0 0 0.0 0.0 0.00 0.00 0.00 100
20260902041730 0 0 0.0 0.0 0.00 0.00 0.00 100
20260902041230 0 0 0.0 0.0 0.00 0.00 0.00 100
20260902040730 0 0 0.0 0.0 0.00 0.00 0.00 100
20260902040230 0 0 0.0 0.0 0.00 0.00 0.00 100
20260902035731 0 0 0.0 0.0 0.00 0.00 0.00 100
20260902035231 0 0 0.0 0.0 0.00 0.00 0.00 100
20260902034731 0 0 0.0 0.0 0.00 0.00 0.00 100
20260902034230 0 0 0.0 0.0 0.00 0.00 0.00 99
20260902033730 0 0 0.0 0.0 0.00 0.00 0.00 99